DELTA 1 DEB, 27577

Orbit data source: Space-Track

DELTA 1 DEB, 27577 is space debris in SSO originally from a launch on Thu, 12 Jun 1975 UTC launched from the Air Force Western Test Range (AFWTR). Debris objects in space refer to the collection of defunct objects orbiting the Earth. Examples of debris include non-operational satellites, rocket bodies, and fragments generated from explosions, collisions, or faulty payload assembly.

Loading next visibility...
Identifier
27577, 1975-052LE
Orbit
SSO
Country
Flag of USUS
Related business
Manufacturer
Unknown
Mission
Spacecraft
Bus & Motor
Unknown
Mass
Unknown
Launch date (UTC)
1975-06-12 (51 years ago)
Launch vehicle
Unknown
Launch site
Air Force Western Test Range (AFWTR)
Object type
Payload
Rocket body
Debris
Shape & HBR
Unknown shape, 0.1 m
Radar Cross Section
Small (<0.1 m²)

Expand to show TLE details & history
Last TLE update: 7 hours ago

TLE from 7 hours ago
0 DELTA 1 DEB
1 27577U 75052LE  26127.12080453  .00000439  00000-0  76533-3 0  9991
2 27577  99.0951 356.9718 0076976 133.4301  20.5245 13.47543732532021
Epoch: 2026-05-07T02:53Z
TLE epoch observation values (Epoch: 2026-05-07T02:53:57.511Z)
Latitude
25.41752°
Longitude
-87.14897°
Altitude
1,030.564 km
Speed
7.365 km/s
True Right ascension
12h 05m 14s
True Declination
25° 17' 22"
Sunlit
Object was in partial shadow at epoch
Visualization orbit readout
Latitude
Unknown
Longitude
Unknown
Altitude
Unknown
Speed
Unknown
Apparent Right ascension
Unknown
Apparent Declination
Unknown
Sunlit
N/A
Visualization observer readout
Local Sidereal Time
18:16:53
Azimuth
Unknown
Elevation
Unknown
Doppler factor
Unknown
Orbital elements
Apogee altitude
1,135.983 km
Perigee altitude
1,021.185 km
Semi-major axis
7,456.721 km
Eccentricity
0.0077
Inclination
99.0951°
RAAN
356.9718°
Arg. of periapsis
133.4301°
True anomaly
20.83657°
Mean anomaly
20.5245°
Eccentric anomaly
20.68025°
Mean motion
3.37071 °/min
Orbital period
106.8 mins
BSTAR
0.00076533
Loading maneuver chart data...
Computing Atmospheric mass density...
Loading historical data...
Loading historical data...
Loading historical data...
Loading historical data...
Loading historical data...
Loading historical data...
Loading historical data...

Documentation

Showing up to 5 results
|